Starlink 33836

operational
NORAD ID: 63642 Int'l Des: 2025-083 Owner: SPXS Country: US Constellation: starlink
LEOCIRCULAR

Über Starlink 33836

Beschreibung wird geladen...

Live-Position

3D-Globus wird geladen...

Nächste Überflüge

Höhenverlauf

Altitude vs Time

uPlot chart will show altitude changes over time

Zweizeiliger Elementsatz

1 63642U 25083J 25352.67465633 .00021356 00000-0 78298-3 0 9990
2 63642 42.9994 103.0020 0001731 270.7845 89.2808 15.27594830 37673
Epoch: 18. Dez. 2025 • Age: 23 hours

Aktueller Status

Höhe 483.7 km
Geschwindigkeit 7.62 km/s
Subsatellitenpunkt -6.43°S, 28.71°W
Startdatum 25. Apr. 2025
Alter 0.6 years
Typ internet

Technische Details

Klassifizierung Payload
Masse 575.00 kg
Trockenmasse 530.00 kg
Gesamtmasse 575.00 kg
Länge 0.30 m
Durchmesser 4.10 m
Spannweite 29.00 m
Form Box + pan
Hersteller SPXS
Bus-Typ Starlink V2MO
Phasenstatus In Orbit
Besitzer/Staat SPXS/US

Große Konstellationen

Loading constellations...